GW0552 Weather Reports


Display with metric or nautical units.
time (UTC)temp
F
wind
direction
speed
MPH
gust
MPH
rain 1hr
in
rain 24hr
in
rain mn
in
humidity
%
barometer
mb
20260510215958 71 164 4.0 6.0 0.00 0.03 0.03 65 1011.6
20260510215456 72 309 4.0 5.0 0.00 0.03 0.03 67 1011.3
20260510214954 73 256 4.0 5.0 0.00 0.03 0.03 65 1011.2
20260510214450 72 157 1.0 2.0 0.00 0.03 0.03 68 1011.2
20260510213947 72 189 3.0 3.0 0.00 0.03 0.03 67 1011.2
20260510213444 73 37 3.0 5.0 0.00 0.03 0.03 67 1011.0
20260510212940 73 143 2.0 2.0 0.00 0.03 0.03 66 1011.0
20260510212437 73 164 2.0 3.0 0.00 0.03 0.03 67 1011.2
20260510211934 74 208 5.0 7.0 0.00 0.03 0.03 68 1011.0
20260510211431 75 258 2.0 5.0 0.00 0.03 0.03 65 1010.7
20260510210925 75 174 2.0 2.0 0.00 0.03 0.03 64 1010.7
20260510210421 75 132 2.0 2.0 0.00 0.03 0.03 66 1010.8
20260510205920 75 125 0.0 0.0 0.00 0.03 0.03 67 1010.8
20260510205415 75 233 4.0 5.0 0.00 0.03 0.03 65 1010.6
20260510204912 75 287 5.0 6.0 0.00 0.03 0.03 64 1010.9
20260510204408 75 294 6.0 8.0 0.00 0.03 0.03 67 1010.7
20260510203905 75 132 1.0 2.0 0.00 0.03 0.03 66 1010.8
20260510203403 75 353 3.0 5.0 0.00 0.03 0.03 69 1010.9
20260510202902 75 259 4.0 5.0 0.00 0.03 0.03 65 1010.7
20260510202358 75 189 2.0 2.0 0.00 0.03 0.03 67 1010.9
20260510201855 74 181 3.0 5.0 0.00 0.03 0.03 67 1010.7
20260510201352 72 161 2.0 2.0 0.00 0.03 0.03 70 1010.7
20260510200849 73 150 0.0 0.0 0.00 0.03 0.03 74 1010.9
20260510200348 74 133 0.0 0.0 0.00 0.03 0.03 71 1010.8
20260510195843 74 65 2.0 3.0 0.00 0.03 0.03 70 1010.9
20260510195340 75 160 2.0 2.0 0.00 0.03 0.03 68 1010.8
20260510194834 75 139 3.0 3.0 0.00 0.03 0.03 68 1011.0
20260510194332 74 107 1.0 2.0 0.00 0.03 0.03 77 1011.1
20260510193827 72 128 0.0 1.0 0.00 0.03 0.03 80 1011.1
20260510193322 72 125 2.0 2.0 0.00 0.03 0.03 81 1011.0
20260510192818 71 123 1.0 1.0 0.00 0.03 0.03 83 1011.0
20260510192313 70 121 0.0 0.0 0.00 0.03 0.03 80 1011.0
20260510191810 70 123 0.0 0.0 0.00 0.03 0.03 79 1011.1
20260510191306 69 117 1.0 1.0 0.00 0.03 0.03 79 1011.2
20260510190804 68 148 2.0 2.0 0.07 0.03 0.03 83 1011.4
20260510190301 68 115 0.0 1.0 0.12 0.03 0.03 80 1011.2
20260510185757 69 124 4.0 5.0 0.12 0.02 0.02 78 1011.4
20260510185255 70 125 1.0 1.0 0.07 0.01 0.01 73 1011.5
20260510184752 71 138 4.0 5.0 0.00 0.00 0.00 69 1011.5
20260510184248 73 67 3.0 5.0 0.00 0.00 0.00 63 1011.2
20260510183743 73 131 0.0 0.0 0.00 0.00 0.00 62 1011.1
20260510183238 73 120 0.0 1.0 0.00 0.00 0.00 62 1011.1
20260510182735 73 133 0.0 0.0 0.00 0.00 0.00 61 1011.0
20260510182231 74 112 3.0 5.0 0.00 0.00 0.00 60 1011.2
20260510181728 75 72 2.0 3.0 0.00 0.00 0.00 59 1011.0
20260510181225 75 45 3.0 6.0 0.00 0.00 0.00 60 1011.1
20260510180721 76 356 7.0 9.0 0.00 0.00 0.00 59 1010.8
20260510180219 73 146 0.0 1.0 0.00 0.00 0.00 64 1010.9
20260510175714 73 158 1.0 2.0 0.00 0.00 0.00 62 1011.1
20260510175210 74 137 3.0 5.0 0.00 0.00 0.00 62 1011.0
20260510174708 73 108 1.0 2.0 0.00 0.00 0.00 62 1011.1
20260510174205 74 38 2.0 5.0 0.00 0.00 0.00 63 1011.0
20260510173701 74 150 2.0 2.0 0.00 0.00 0.00 65 1010.8
20260510173157 74 243 3.0 3.0 0.00 0.00 0.00 65 1010.9
20260510172652 74 146 1.0 1.0 0.00 0.00 0.00 64 1011.0
20260510172149 75 146 2.0 2.0 0.00 0.00 0.00 65 1010.9
20260510171646 74 130 3.0 3.0 0.00 0.00 0.00 62 1011.1
20260510171143 74 116 0.0 0.0 0.00 0.00 0.00 64 1010.7
20260510170639 73 126 0.0 0.0 0.00 0.00 0.00 66 1010.9
20260510170136 72 119 1.0 1.0 0.00 0.00 0.00 67 1011.1
20260510165632 71 146 2.0 2.0 0.00 0.00 0.00 67 1011.1
20260510165127 71 77 3.0 3.0 0.00 0.00 0.00 69 1011.2
20260510164625 70 141 1.0 1.0 0.00 0.00 0.00 68 1011.2
20260510164122 71 149 2.0 2.0 0.00 0.00 0.00 68 1011.1
20260510163617 71 116 0.0 0.0 0.00 0.00 0.00 66 1011.1
20260510163114 72 62 0.0 1.0 0.00 0.00 0.00 65 1011.3
20260510162608 72 134 0.0 0.0 0.00 0.00 0.00 63 1011.1
20260510162105 74 24 1.0 3.0 0.00 0.00 0.00 63 1011.1
20260510161601 74 118 0.0 0.0 0.00 0.00 0.00 63 1010.9
20260510161058 74 75 5.0 8.0 0.00 0.00 0.00 60 1011.1
20260510160555 74 118 3.0 3.0 0.00 0.00 0.00 60 1010.9
20260510160054 73 130 4.0 5.0 0.00 0.00 0.00 61 1011.2
20260510155551 72 123 0.0 1.0 0.00 0.00 0.00 62 1011.1
20260510155048 73 317 7.0 10.0 0.00 0.00 0.00 61 1011.0
20260510154543 72 136 1.0 1.0 0.00 0.00 0.00 65 1011.1
20260510154039 71 103 2.0 2.0 0.00 0.00 0.00 64 1011.0
20260510153534 71 345 3.0 5.0 0.00 0.00 0.00 62 1010.9
20260510153031 72 206 5.0 6.0 0.00 0.00 0.00 62 1011.0
20260510152528 71 132 4.0 6.0 0.00 0.00 0.00 65 1010.8
20260510152024 71 18 2.0 3.0 0.00 0.00 0.00 64 1010.8
20260510151521 71 110 1.0 1.0 0.00 0.00 0.00 66 1010.9
20260510151019 71 93 3.0 3.0 0.00 0.00 0.00 64 1010.8
20260510150513 71 73 3.0 3.0 0.00 0.00 0.00 62 1010.9
20260510150010 71 121 3.0 5.0 0.00 0.00 0.00 62 1010.8
20260510145507 70 129 2.0 2.0 0.00 0.00 0.00 67 1010.8
20260510145003 71 96 3.0 6.0 0.00 0.00 0.00 64 1010.7
20260510144459 70 150 5.0 6.0 0.00 0.00 0.00 65 1010.7
20260510143954 70 107 1.0 3.0 0.00 0.00 0.00 67 1010.4
20260510143445 70 110 7.0 8.0 0.00 0.00 0.00 64 1010.8
20260510142942 70 113 3.0 3.0 0.00 0.00 0.00 65 1010.7
20260510142439 70 132 0.0 1.0 0.00 0.00 0.00 67 1010.7
20260510141935 70 85 3.0 5.0 0.00 0.00 0.00 66 1011.0
20260510141432 69 115 4.0 6.0 0.00 0.00 0.00 67 1010.7
20260510140929 70 121 0.0 0.0 0.00 0.00 0.00 67 1010.9
20260510140426 69 131 2.0 2.0 0.00 0.00 0.00 70 1010.8
20260510135925 68 137 3.0 5.0 0.00 0.00 0.00 70 1010.8
20260510135421 68 114 0.0 1.0 0.00 0.00 0.00 72 1010.6
20260510134918 67 123 1.0 2.0 0.00 0.00 0.00 74 1010.9
20260510134415 67 132 3.0 3.0 0.00 0.00 0.00 73 1010.7
20260510133911 66 117 2.0 2.0 0.00 0.00 0.00 74 1010.9
20260510133408 66 116 2.0 2.0 0.00 0.00 0.00 76 1010.7
20260510132903 65 127 3.0 3.0 0.00 0.00 0.00 77 1010.8
20260510132401 64 129 0.0 0.0 0.00 0.00 0.00 84 1010.9
20260510131858 64 132 0.0 0.0 0.00 0.00 0.00 82 1010.9
20260510131355 64 133 0.0 1.0 0.00 0.00 0.00 83 1010.8
20260510130852 64 125 1.0 2.0 0.00 0.00 0.00 80 1010.6
20260510130349 64 116 4.0 5.0 0.00 0.00 0.00 79 1010.8
20260510125846 63 129 1.0 1.0 0.00 0.00 0.00 85 1010.6
20260510125342 61 129 3.0 3.0 0.00 0.00 0.00 86 1010.5
20260510124839 60 132 0.0 1.0 0.00 0.00 0.00 91 1010.8
20260510124335 58 135 2.0 2.0 0.00 0.00 0.00 98 1010.6
20260510123831 57 120 1.0 2.0 0.00 0.00 0.00 99 1010.7
20260510123327 55 123 0.0 0.0 0.00 0.00 0.00 99 1010.5
20260510122823 54 123 0.0 0.0 0.00 0.00 0.00 99 1010.5
20260510122320 54 133 0.0 0.0 0.00 0.00 0.00 99 1010.4
20260510121816 53 126 0.0 0.0 0.00 0.00 0.00 99 1010.2
20260510121314 52 130 0.0 0.0 0.00 0.00 0.00 99 1010.0
20260510120811 51 129 0.0 0.0 0.00 0.00 0.00 99 1010.3
20260510120307 51 125 0.0 0.0 0.00 0.00 0.00 99 1010.2
20260510115803 50 126 0.0 0.0 0.00 0.00 0.00 99 1010.2
20260510115305 50 130 0.0 0.0 0.00 0.00 0.00 99 1010.1
20260510114756 49 130 0.0 0.0 0.00 0.00 0.00 99 1010.0
20260510114253 49 130 0.0 0.0 0.00 0.00 0.00 99 1010.2
20260510113748 49 130 0.0 0.0 0.00 0.00 0.00 99 1010.0
20260510113246 48 130 0.0 0.0 0.00 0.00 0.00 99 1009.9
20260510112742 48 130 0.0 0.0 0.00 0.00 0.00 99 1010.0
20260510112238 48 130 0.0 0.0 0.00 0.00 0.00 99 1009.9
20260510111734 48 130 0.0 0.0 0.00 0.00 0.00 99 1009.9
20260510111232 48 129 0.0 0.0 0.00 0.00 0.00 99 1009.7
20260510110731 48 129 0.0 0.0 0.00 0.00 0.00 99 1009.2
20260510110229 47 129 0.0 0.0 0.00 0.00 0.00 99 1009.2
20260510105728 48 129 0.0 0.0 0.00 0.00 0.00 99 1009.3
20260510105224 48 129 0.0 0.0 0.00 0.00 0.00 99 1009.3
20260510104720 48 129 0.0 0.0 0.00 0.00 0.00 99 1009.2
20260510104218 48 129 0.0 0.0 0.00 0.00 0.00 99 1009.0
20260510103714 48 129 0.0 0.0 0.00 0.00 0.00 99 1009.1
20260510103212 47 129 0.0 0.0 0.00 0.00 0.00 99 1009.0
20260510102711 47 129 0.0 0.0 0.00 0.00 0.00 99 1009.1
20260510102207 47 129 0.0 0.0 0.00 0.00 0.00 99 1008.8
20260510101705 47 128 0.0 0.0 0.00 0.00 0.00 99 1008.8
20260510101203 47 131 0.0 0.0 0.00 0.00 0.00 99 1008.8
20260510100658 48 128 0.0 0.0 0.00 0.00 0.00 99 1009.0
20260510100156 48 129 0.0 0.0 0.00 0.00 0.00 99 1009.0
20260510095652 48 130 0.0 0.0 0.00 0.00 0.00 99 1008.9
20260510095147 48 121 0.0 0.0 0.00 0.00 0.00 99 1008.9
20260510094646 48 130 0.0 0.0 0.00 0.00 0.00 99 1008.6
20260510094142 48 130 0.0 0.0 0.00 0.00 0.00 99 1008.5
20260510093638 48 129 0.0 0.0 0.00 0.00 0.00 99 1008.5
20260510093135 48 129 0.0 0.0 0.00 0.00 0.00 99 1008.4
20260510092632 48 130 0.0 0.0 0.00 0.00 0.00 99 1008.4
20260510092127 48 127 0.0 0.0 0.00 0.00 0.00 99 1008.4
20260510091623 49 126 0.0 0.0 0.00 0.00 0.00 99 1008.3
20260510091120 48 127 0.0 0.0 0.00 0.00 0.00 99 1008.4
20260510090617 48 128 0.0 0.0 0.00 0.00 0.00 99 1008.4
20260510090113 48 128 0.0 0.0 0.00 0.00 0.00 99 1008.2
20260510085608 48 128 0.0 0.0 0.00 0.00 0.00 99 1008.2
20260510085104 48 130 0.0 0.0 0.00 0.00 0.00 99 1008.0
20260510084601 48 129 0.0 0.0 0.00 0.00 0.00 99 1008.2
20260510084057 49 129 0.0 0.0 0.00 0.00 0.00 99 1008.1
20260510083554 49 134 0.0 0.0 0.00 0.00 0.00 99 1008.3
20260510083050 49 128 0.0 0.0 0.00 0.00 0.00 99 1008.0
20260510082547 49 126 0.0 0.0 0.00 0.00 0.00 99 1008.0
20260510082042 49 123 0.0 0.0 0.00 0.00 0.00 99 1008.0
20260510081537 49 125 0.0 0.0 0.00 0.00 0.00 99 1008.0
20260510081033 49 129 0.0 0.0 0.00 0.00 0.00 99 1007.8
20260510080532 49 129 1.0 1.0 0.00 0.00 0.00 99 1007.8
20260510080030 49 135 1.0 2.0 0.00 0.00 0.00 99 1007.9
20260510075527 49 122 0.0 1.0 0.00 0.00 0.00 99 1007.7
20260510075024 49 126 0.0 0.0 0.00 0.00 0.00 99 1007.7
20260510074522 49 125 0.0 0.0 0.00 0.00 0.00 99 1007.7
20260510074016 49 126 0.0 0.0 0.00 0.00 0.00 99 1007.7
20260510073512 49 123 0.0 0.0 0.00 0.00 0.00 99 1007.7
20260510073010 49 132 0.0 0.0 0.00 0.00 0.00 99 1007.8
20260510072506 49 128 0.0 0.0 0.00 0.00 0.00 99 1007.4
20260510072001 49 127 0.0 0.0 0.00 0.00 0.00 99 1007.5
20260510071458 49 126 0.0 0.0 0.00 0.00 0.00 99 1007.6
20260510070957 49 130 0.0 0.0 0.00 0.00 0.00 99 1007.6
20260510070453 49 127 0.0 1.0 0.00 0.00 0.00 99 1007.8
20260510065949 50 131 1.0 1.0 0.00 0.00 0.00 99 1007.6
20260510065446 49 130 0.0 0.0 0.00 0.00 0.00 99 1007.8
20260510064942 50 131 1.0 1.0 0.00 0.00 0.00 99 1007.6
20260510064440 50 124 1.0 1.0 0.00 0.00 0.00 99 1007.5
20260510063936 50 120 0.0 0.0 0.00 0.00 0.00 99 1007.9
20260510063432 50 128 0.0 0.0 0.00 0.00 0.00 99 1007.6
20260510062931 50 135 0.0 1.0 0.00 0.00 0.00 99 1007.7
20260510062430 50 150 2.0 2.0 0.00 0.00 0.00 99 1007.9
20260510061926 50 128 0.0 0.0 0.00 0.00 0.00 99 1007.8
20260510061423 50 133 0.0 1.0 0.00 0.00 0.00 99 1007.8
20260510060919 50 128 0.0 1.0 0.00 0.00 0.00 99 1007.7
20260510060417 50 129 0.0 0.0 0.00 0.00 0.00 99 1007.7
20260510055913 50 128 0.0 0.0 0.00 0.00 0.00 99 1007.7
20260510055408 50 124 1.0 1.0 0.00 0.00 0.00 99 1007.6
20260510054907 50 122 0.0 0.0 0.00 0.00 0.00 99 1007.6
20260510054402 51 131 0.0 0.0 0.00 0.00 0.00 99 1007.8
20260510053857 51 123 0.0 0.0 0.00 0.00 0.00 99 1007.7
20260510053353 51 127 0.0 0.0 0.00 0.00 0.00 99 1007.7
20260510052849 51 130 0.0 0.0 0.00 0.00 0.00 99 1007.8
20260510052345 51 124 0.0 0.0 0.00 0.00 0.00 99 1007.6
20260510051841 51 131 0.0 0.0 0.00 0.00 0.00 99 1007.7
20260510051338 51 131 0.0 0.0 0.00 0.00 0.00 99 1007.9
20260510050835 51 130 0.0 0.0 0.00 0.00 0.00 99 1008.1
20260510050332 52 137 0.0 0.0 0.00 0.00 0.00 99 1007.9
20260510045829 51 127 0.0 0.0 0.00 0.00 0.00 99 1007.9
20260510045326 52 138 1.0 1.0 0.00 0.00 0.00 99 1007.8
20260510044823 51 126 0.0 0.0 0.00 0.00 0.00 99 1008.1
20260510044319 51 128 0.0 0.0 0.00 0.00 0.00 99 1008.0
20260510043816 51 136 1.0 1.0 0.00 0.00 0.00 99 1008.0
20260510043312 51 130 0.0 1.0 0.00 0.00 0.00 99 1008.3
20260510042810 51 130 1.0 1.0 0.00 0.00 0.00 99 1008.2
20260510042307 52 129 1.0 1.0 0.00 0.00 0.00 99 1008.1
20260510041802 52 127 1.0 1.0 0.00 0.00 0.00 99 1008.1
20260510041259 52 133 1.0 1.0 0.00 0.00 0.00 99 1008.0
20260510040757 52 134 2.0 2.0 0.00 0.00 0.00 99 1008.2
20260510040248 52 137 1.0 2.0 0.00 0.00 0.00 99 1008.1
20260510035743 52 133 1.0 2.0 0.00 0.00 0.00 99 1008.2
20260510035239 52 133 2.0 2.0 0.00 0.00 0.00 99 1008.1
20260510034735 52 134 2.0 2.0 0.00 0.00 0.00 99 1008.3
20260510034233 53 132 2.0 2.0 0.00 0.00 0.00 99 1008.3
20260510033729 53 130 1.0 2.0 0.00 0.00 0.00 99 1008.3
20260510033227 53 138 1.0 2.0 0.00 0.00 0.00 99 1008.1
20260510032723 53 127 2.0 2.0 0.00 0.00 0.00 99 1008.0
20260510032219 53 132 1.0 2.0 0.00 0.00 0.00 99 1008.1
20260510031714 53 134 1.0 1.0 0.00 0.00 0.00 99 1008.2
20260510031210 53 135 1.0 1.0 0.00 0.00 0.00 98 1008.0
20260510030709 53 131 2.0 2.0 0.00 0.00 0.00 98 1008.1
20260510030208 54 131 1.0 1.0 0.00 0.00 0.00 98 1008.2
20260510025705 54 134 1.0 1.0 0.00 0.00 0.00 98 1008.1
20260510025202 54 133 2.0 2.0 0.00 0.00 0.00 98 1008.1
20260510024659 54 131 2.0 2.0 0.00 0.00 0.00 98 1007.8
20260510024155 54 136 2.0 2.0 0.00 0.00 0.00 98 1007.6
20260510023651 54 137 2.0 2.0 0.00 0.00 0.00 98 1007.9
20260510023148 55 128 3.0 3.0 0.00 0.00 0.00 97 1007.7
20260510022643 55 138 2.0 3.0 0.00 0.00 0.00 97 1007.6
20260510022139 55 132 1.0 2.0 0.00 0.00 0.00 96 1007.5
20260510021634 55 126 0.0 0.0 0.00 0.00 0.00 96 1007.6
20260510021131 55 132 0.0 0.0 0.00 0.00 0.00 96 1007.3
20260510020626 55 134 2.0 2.0 0.00 0.00 0.00 96 1007.4
20260510020121 55 134 0.0 0.0 0.00 0.00 0.00 95 1007.3
20260510015618 56 132 0.0 0.0 0.00 0.00 0.00 95 1006.8
20260510015114 56 133 0.0 0.0 0.00 0.00 0.00 94 1007.2
20260510014610 56 129 0.0 0.0 0.00 0.00 0.00 94 1007.1
20260510014108 56 130 0.0 0.0 0.00 0.00 0.00 93 1006.9
20260510013602 57 131 0.0 0.0 0.00 0.00 0.00 92 1006.8
20260510013058 57 130 1.0 1.0 0.00 0.00 0.00 92 1006.7
20260510012557 57 132 0.0 0.0 0.00 0.00 0.00 91 1006.8
20260510012054 58 131 0.0 0.0 0.00 0.00 0.00 91 1006.5
20260510011553 58 130 0.0 1.0 0.00 0.00 0.00 90 1006.4
20260510011050 58 133 1.0 1.0 0.00 0.00 0.00 91 1006.5
20260510010546 58 129 1.0 1.0 0.00 0.00 0.00 89 1006.3
20260510010044 59 130 1.0 1.0 0.00 0.00 0.00 88 1006.5
20260510005539 59 132 1.0 1.0 0.00 0.00 0.00 87 1006.4
20260510005037 59 131 1.0 1.0 0.00 0.00 0.00 87 1006.4
20260510004534 60 127 0.0 0.0 0.00 0.00 0.00 85 1006.3
20260510004032 61 128 1.0 1.0 0.00 0.00 0.00 84 1006.3
20260510003529 61 127 1.0 1.0 0.00 0.00 0.00 83 1006.1
20260510003024 62 129 1.0 2.0 0.00 0.00 0.00 81 1006.1
20260510002520 63 132 1.0 1.0 0.00 0.00 0.00 79 1005.9
20260510002017 64 133 1.0 1.0 0.00 0.00 0.00 77 1005.9
20260510001514 64 118 1.0 2.0 0.00 0.00 0.00 76 1006.0
20260510001012 65 132 0.0 0.0 0.00 0.00 0.00 75 1006.2
20260510000512 65 128 1.0 1.0 0.00 0.00 0.00 74 1005.9
20260510000010 66 133 1.0 1.0 0.00 0.00 0.00 72 1006.0
20260509235507 67 131 0.0 0.0 0.00 0.00 0.00 71 1005.7
20260509235003 67 131 1.0 1.0 0.00 0.00 0.00 70 1005.7
20260509234459 67 130 3.0 5.0 0.00 0.00 0.00 69 1005.9
20260509233957 68 171 3.0 3.0 0.00 0.00 0.00 68 1005.7
20260509233454 68 125 2.0 3.0 0.00 0.00 0.00 68 1005.6
20260509232950 68 149 4.0 5.0 0.00 0.00 0.00 67 1005.7
20260509232449 68 135 3.0 3.0 0.00 0.00 0.00 67 1005.8
20260509231944 69 149 5.0 6.0 0.00 0.00 0.00 66 1005.5
20260509231441 69 120 3.0 5.0 0.00 0.00 0.00 66 1005.7
20260509230939 69 121 5.0 6.0 0.00 0.00 0.00 65 1005.6
20260509230435 69 145 5.0 7.0 0.00 0.00 0.00 65 1005.6
20260509225931 70 143 7.0 9.0 0.00 0.00 0.00 64 1005.5
20260509225428 70 180 3.0 3.0 0.00 0.00 0.00 64 1005.6
20260509224924 70 111 3.0 5.0 0.00 0.00 0.00 62 1005.4
20260509224420 70 111 8.0 9.0 0.00 0.00 0.00 61 1005.6
20260509223917 71 161 7.0 8.0 0.00 0.00 0.00 61 1005.6
20260509223414 71 124 4.0 7.0 0.00 0.00 0.00 61 1005.6
20260509222911 71 116 4.0 5.0 0.00 0.00 0.00 60 1005.4
20260509222406 71 116 2.0 2.0 0.00 0.00 0.00 62 1005.5
20260509221902 71 128 3.0 5.0 0.00 0.00 0.00 62 1005.7
20260509221359 71 124 3.0 3.0 0.00 0.00 0.00 63 1005.5
20260509220855 70 153 2.0 2.0 0.00 0.00 0.00 63 1005.3